User: anonymous
Location: Melbourne
(37.8170°S, 144.9670°E)
Time: 13:18:29
(UTC+10:00)
Language:

Aureole 2 Rocket - Orbit

View from above orbital plane
View from above orbital plane
View from above satellite
View from above satellite

Ground track
Ground track

The orbit data is extracted from the following two-line orbital elements,

1 07004U 73107B   14113.10833896  .00028969  00000-0  81407-3 0  5978
2 07004 073.9522 339.7876 0309084 138.8788 024.4487 15.00238718 62104
Epoch (UTC): 23 April 2014 02:36:00
Eccentricity: 0.0309084
inclination: 73.9522°
perigee height: 351 km
apogee height: 781 km
right ascension of ascending node: 339.7876°
argument of perigee: 138.8788°
revolutions per day: 15.00238718
mean anomaly at epoch: 24.4487°
orbit number at epoch: 6210

The dashed part of the orbit path shows where the satellite is in the earth's shadow,  

DLR